Location: Bieg
(49.3499°N, 10.3835°E)
Time: 10:37:13
(UTC+00:00)

COSMOS 2406 - Pass Details

Date: 23 May 2024
Orbit: 844 x 861 km, 71.0° (Epoch: 21 June)

Event Time Altitude Azimuth Distance (km) Brightness Sun altitude
Exits shadow 01:19:31 17° 239° (WSW) 2,021 4.7 -14.8°
Maximum altitude 01:23:39 46° 307° (NW) 1,143 3.9 -14.4°
Drops below altitude 10° 01:29:12 10° 20° (NNE) 2,509 7.0 -13.9°
Sets 01:31:47 0° 27° (NNE) 3,448 8.3 -13.7°
